Other Public Products
Issued by NWS Charleston, SC

Current Version | Previous Version | Text Only | Print | Product List | Glossary Off
Versions: 1 2 3 4 5 6 7 8 9 10 11 12 13 14 15 16 17 18 19 20 21 22 23 24 25 26 27 28 29 30 31 32 33 34 35 36 37 38 39 40 41 42 43 44 45 46 47 48 49 50

280
FPUS82 KCHS 242312
OPUCHS

TEST...KCHS/KSAV Gateway Observations...TEST
National Weather Service Charleston SC
600 PM EST FRI FEB 24 2017

NOTE: "fair" indicates few or no clouds below 12,000 feet with no
significant weather and/or obstructions to visibility.

SCZ050-WAZ558-NCZ071-TXZ119-213-PAZ071-DCZ001-FLZ074-172-MI076-
NYZ176-178-MAZ016-IL014-TNZ027-NJZ106-GAZ044-MD014-250000-
...Gateway Observations for Charleston International...

CITY           SKY/WX    TMP DP  RH WIND       PRES   REMARKS
Chas Airport   PTCLDY    71  59  65 SE8       29.84R
Seattle        PTSUNNY   43  28  55 W3        30.16S
Charlotte      MOCLDY    73  50  44 SW6       29.82S
Dallas DFW     SUNNY     62  30  29 NW15      29.88R
Dallas Love    SUNNY     62  31  31 NW12      29.89R
Philladelphia  PTCLDY    67  54  63 S14       29.85F
Wash National  PTCLDY    67  53  61 S12       29.81S
Baltimore      PTCLDY    67  55  65 SE13G23   29.81S
Miami          PTCLDY    77  65  66 S7        29.78R
Detroit        CLOUDY    65  55  70 SW16      29.49S
Newark         MOCLDY    67  53  61 S8        29.84S
Laguardia      PTCLDY    64  54  69 S15G23    29.85S
J F K          PTCLDY    53  53 100 S21G29    29.88S
Boston Logan   PTCLDY    62  53  72 S17       29.87R
Ft. Lauderdale PTCLDY    76  66  71 E7        29.78R
Chicago O`Hare CLOUDY    40  37  89 NW9       29.50R FOG     WCI  34
Chicago Midway CLOUDY    41  38  89 NW7       29.50R FOG
Houston Bush   MOSUNNY   81  30  15 NW16G22   29.77R
Houston Hobby  MOSUNNY   83  42  23 N15       29.75R
Nashville      MOCLDY    77  50  38 SW17G32   29.64R
Atlanta        PTCLDY    76  52  43 S14       29.79R

$$

GAZ044-118-TXZ119-213-NCZ071-DCZ001-MDZ014-506-PAZ021-071-NJZ106-
NYZ176-178-MAZ106-OHZ011-021-055-MIZ076-KYZ091-ILZ014-INZ047-
MNZ060-ONZ431-250000-
...Gateway Observations for Savannah International...

CITY           SKY/WX    TMP DP  RH WIND       PRES   REMARKS
Savannah Arpt  PTCLDY    73  57  57 E9        29.84S
Atlanta        PTCLDY    76  52  43 S14       29.79R
Charlotte      MOCLDY    73  50  44 SW6       29.82S
Dallas DFW     SUNNY     62  30  29 NW15      29.88R
Houston Bush   MOSUNNY   81  30  15 NW16G22   29.77R
Wash National  PTCLDY    67  53  61 S12       29.81S
Wash Dulles    PTCLDY    71  50  47 S13G23    29.79S
Baltimore      PTCLDY    67  55  65 SE13G23   29.81S
Philadelphia   PTCLDY    67  54  63 S14       29.85F
Newark         MOCLDY    67  53  61 S8        29.84S
Laguardia      PTCLDY    64  54  69 S15G23    29.85S
J F K          PTCLDY    53  53 100 S21G29    29.88S
Boston         PTCLDY    62  53  72 S17       29.87R
Pittsburg      MOCLDY    74  47  38 S10       29.61F
Akron          MOCLDY    71  48  43 SW13      29.61R
Cleveland      MOCLDY    74  50  42 S12       29.60R
Cincinnati     MOCLDY    74  51  44 S15G24    29.54F
Columbus       MOCLDY    72  51  47 SW9       29.58S
Detroit        CLOUDY    65  55  70 SW16      29.49S
Chicago O`Hare CLOUDY    40  37  89 NW9       29.50R FOG     WCI  34
Minneapolis    CLOUDY    26  11  52 N21G26    29.83R WCI  12
Indianapolis   CLOUDY    63  55  75 SW14      29.49F
Toronto Canada CLOUDY    41  39  93 E10       29.65  FOG

$$




USA.gov is the U.S. government's official web portal to all federal, state and local government web resources and services.